{"data":{"norad_id":52862,"epoch":"2026-09-20T04:06:59.709024Z","epoch_age_seconds":97252,"freshness":"FRESH","line1":"1 52862U 22062AJ  26263.17152441  .00001668  00000+0  60515-4 0  9990","line2":"2 52862  53.1598 215.1450 0001341  92.4867 267.6289 15.34392985235503","mean_motion":15.34392985,"eccentricity":0.0001341,"inclination_deg":53.1598,"raan_deg":215.145,"arg_perigee_deg":92.4867,"mean_anomaly_deg":267.6289,"bstar":6.0515e-5,"rev_number":23550,"period_min":93.848187138316,"perigee_km":461.80673087267,"apogee_km":463.6414498171,"semimajor_km":6840.8610903449,"source":"CELESTRAK","updated_at":"2026-09-20T09:00:40.117319Z"}}